TimeEST,TemperatureF,Dew PointF,Humidity,Sea Level PressureIn,VisibilityMPH,Wind Direction,Wind SpeedMPH,Gust SpeedMPH,PrecipitationIn,Events,Conditions,WindDirDegrees,DateUTC
12:15 AM,29.5,26.2,88,30.07,10.0,Calm,Calm,-,N/A,,Clear,0,2012-11-08 05:15:00
12:35 AM,28.8,25.3,87,30.08,10.0,Calm,Calm,-,N/A,,Clear,0,2012-11-08 05:35:00
12:55 AM,27.3,24.6,90,30.08,10.0,West,3.5,-,N/A,,Clear,260,2012-11-08 05:55:00
1:15 AM,28.4,25.7,90,30.09,10.0,Calm,Calm,-,N/A,,Clear,0,2012-11-08 06:15:00
1:35 AM,28.0,25.2,89,30.09,10.0,Calm,Calm,-,N/A,,Clear,0,2012-11-08 06:35:00
1:55 AM,27.3,24.4,89,30.09,10.0,Calm,Calm,-,N/A,,Clear,0,2012-11-08 06:55:00
2:15 AM,28.0,25.3,90,30.09,10.0,Calm,Calm,-,N/A,,Clear,0,2012-11-08 07:15:00
2:35 AM,26.6,24.4,92,30.09,10.0,Calm,Calm,-,N/A,,Clear,0,2012-11-08 07:35:00
2:55 AM,26.4,23.9,90,30.10,10.0,Calm,Calm,-,N/A,,Clear,0,2012-11-08 07:55:00
3:15 AM,25.3,23.0,91,30.10,10.0,Calm,Calm,-,N/A,,Clear,0,2012-11-08 08:15:00
3:35 AM,25.5,23.4,92,30.10,10.0,Calm,Calm,-,N/A,,Clear,0,2012-11-08 08:35:00
3:55 AM,25.7,23.4,91,30.11,10.0,Calm,Calm,-,N/A,,Clear,0,2012-11-08 08:55:00
4:15 AM,25.2,23.0,91,30.11,10.0,Calm,Calm,-,N/A,,Clear,0,2012-11-08 09:15:00
4:35 AM,24.8,22.5,91,30.12,10.0,Calm,Calm,-,N/A,,Clear,0,2012-11-08 09:35:00
4:55 AM,23.5,21.6,92,30.13,10.0,Calm,Calm,-,N/A,,Clear,0,2012-11-08 09:55:00
5:15 AM,24.4,22.1,91,30.13,10.0,Calm,Calm,-,N/A,,Clear,0,2012-11-08 10:15:00
5:35 AM,23.9,21.9,92,30.14,10.0,Calm,Calm,-,N/A,,Clear,0,2012-11-08 10:35:00
5:55 AM,23.2,21.4,93,30.14,10.0,Calm,Calm,-,N/A,,Clear,0,2012-11-08 10:55:00
6:15 AM,23.4,21.0,91,30.14,10.0,Calm,Calm,-,N/A,,Clear,0,2012-11-08 11:15:00
6:35 AM,23.5,21.6,92,30.15,10.0,Calm,Calm,-,N/A,,Clear,0,2012-11-08 11:35:00
6:55 AM,22.8,20.7,91,30.16,10.0,Calm,Calm,-,N/A,,Clear,0,2012-11-08 11:55:00
7:15 AM,22.8,20.3,90,30.17,10.0,Calm,Calm,-,N/A,,Clear,0,2012-11-08 12:15:00
7:35 AM,23.9,21.6,91,30.17,10.0,North,-9999.0,-,N/A,,Clear,0,2012-11-08 12:35:00
7:55 AM,23.9,21.6,91,30.18,10.0,Calm,Calm,-,N/A,,Clear,0,2012-11-08 12:55:00
8:15 AM,25.9,23.4,90,30.19,10.0,Calm,Calm,-,N/A,,Clear,0,2012-11-08 13:15:00
8:35 AM,27.7,25.3,91,30.21,10.0,Calm,Calm,-,N/A,,Clear,0,2012-11-08 13:35:00
8:55 AM,30.7,27.7,88,30.21,10.0,Calm,Calm,-,N/A,,Clear,0,2012-11-08 13:55:00
9:15 AM,33.4,28.2,81,30.22,10.0,Calm,Calm,-,N/A,,Clear,0,2012-11-08 14:15:00
9:35 AM,36.0,29.7,78,30.22,10.0,Calm,Calm,-,N/A,,Clear,0,2012-11-08 14:35:00
9:55 AM,38.5,29.5,70,30.22,10.0,North,3.5,-,N/A,,Clear,360,2012-11-08 14:55:00
10:15 AM,39.2,29.3,68,30.23,10.0,Calm,Calm,-,N/A,,Clear,0,2012-11-08 15:15:00
10:35 AM,40.3,29.7,66,30.23,10.0,WNW,3.5,-,N/A,,Clear,300,2012-11-08 15:35:00
10:55 AM,42.1,30.0,62,30.23,10.0,Calm,Calm,-,N/A,,Clear,0,2012-11-08 15:55:00
11:15 AM,42.4,30.2,62,30.22,10.0,NNE,3.5,-,N/A,,Scattered Clouds,20,2012-11-08 16:15:00
11:35 AM,43.5,30.6,60,30.22,10.0,NW,3.5,-,N/A,,Scattered Clouds,320,2012-11-08 16:35:00
11:55 AM,44.2,30.4,58,30.21,10.0,Calm,Calm,-,N/A,,Scattered Clouds,0,2012-11-08 16:55:00
12:15 PM,45.5,30.7,56,30.20,10.0,North,6.9,-,N/A,,Scattered Clouds,350,2012-11-08 17:15:00
12:35 PM,46.4,30.9,55,30.19,10.0,Calm,Calm,-,N/A,,Scattered Clouds,0,2012-11-08 17:35:00
12:55 PM,46.4,31.5,56,30.19,10.0,Calm,Calm,-,N/A,,Clear,0,2012-11-08 17:55:00
1:15 PM,47.5,30.6,52,30.18,10.0,NE,4.6,-,N/A,,Clear,50,2012-11-08 18:15:00
1:35 PM,47.5,30.2,51,30.17,10.0,Calm,Calm,-,N/A,,Clear,0,2012-11-08 18:35:00
1:55 PM,49.1,30.9,50,30.17,10.0,Calm,Calm,-,N/A,,Clear,0,2012-11-08 18:55:00
2:15 PM,49.3,30.4,48,30.16,10.0,West,5.8,-,N/A,,Clear,260,2012-11-08 19:15:00
2:35 PM,49.5,30.0,47,30.16,10.0,Calm,Calm,-,N/A,,Clear,0,2012-11-08 19:35:00
2:55 PM,50.2,29.5,45,30.16,10.0,Calm,Calm,-,N/A,,Clear,0,2012-11-08 19:55:00
3:15 PM,50.4,30.0,46,30.16,10.0,West,4.6,-,N/A,,Clear,260,2012-11-08 20:15:00
3:35 PM,50.2,30.2,46,30.15,10.0,WSW,5.8,-,N/A,,Clear,250,2012-11-08 20:35:00
3:55 PM,50.0,30.2,47,30.15,10.0,Calm,Calm,-,N/A,,Clear,0,2012-11-08 20:55:00
4:15 PM,50.0,30.4,47,30.16,10.0,West,4.6,-,N/A,,Clear,270,2012-11-08 21:15:00
4:35 PM,49.5,30.4,48,30.16,10.0,West,4.6,-,N/A,,Clear,280,2012-11-08 21:35:00
5:15 PM,46.4,30.0,53,30.16,10.0,West,4.6,-,N/A,,Clear,280,2012-11-08 22:15:00
5:35 PM,43.5,29.8,59,30.16,10.0,WNW,4.6,-,N/A,,Clear,290,2012-11-08 22:35:00
5:55 PM,42.4,29.3,60,30.17,10.0,WNW,3.5,-,N/A,,Clear,290,2012-11-08 22:55:00
6:15 PM,40.5,29.3,64,30.17,10.0,West,3.5,-,N/A,,Clear,260,2012-11-08 23:15:00
6:35 PM,39.6,29.3,67,30.17,10.0,West,3.5,-,N/A,,Clear,260,2012-11-08 23:35:00
6:55 PM,40.1,29.5,66,30.17,10.0,Calm,Calm,-,N/A,,Clear,0,2012-11-08 23:55:00
7:15 PM,38.1,28.9,70,30.18,10.0,Calm,Calm,-,N/A,,Clear,0,2012-11-09 00:15:00
7:35 PM,35.6,29.3,78,30.18,10.0,Calm,Calm,-,N/A,,Clear,0,2012-11-09 00:35:00
7:55 PM,36.3,29.1,75,30.18,10.0,Calm,Calm,-,N/A,,Clear,0,2012-11-09 00:55:00
8:15 PM,34.7,29.3,81,30.18,10.0,Calm,Calm,-,N/A,,Clear,0,2012-11-09 01:15:00
8:35 PM,33.6,29.1,84,30.18,10.0,Calm,Calm,-,N/A,,Clear,0,2012-11-09 01:35:00
8:55 PM,33.1,29.5,87,30.18,10.0,Calm,Calm,-,N/A,,Clear,0,2012-11-09 01:55:00
9:35 PM,31.6,28.0,87,30.18,10.0,Calm,Calm,-,N/A,,Clear,0,2012-11-09 02:35:00
9:55 PM,31.1,28.2,89,30.18,10.0,Calm,Calm,-,N/A,,Clear,0,2012-11-09 02:55:00
10:15 PM,31.1,28.4,90,30.18,10.0,Calm,Calm,-,N/A,,Clear,0,2012-11-09 03:15:00
10:35 PM,30.2,27.7,90,30.18,10.0,Calm,Calm,-,N/A,,Clear,0,2012-11-09 03:35:00
11:15 PM,29.5,27.3,92,30.18,10.0,Calm,Calm,-,N/A,,Clear,0,2012-11-09 04:15:00
11:35 PM,29.3,26.8,90,30.18,10.0,Calm,Calm,-,N/A,,Clear,0,2012-11-09 04:35:00
11:55 PM,28.4,26.1,91,30.19,10.0,Calm,Calm,-,N/A,,Clear,0,2012-11-09 04:55:00